EW0362 Weather Reports


time (UTC)temp
F
wind
direction
speed
knots
gust
knots
rain 1hr
in
rain 24hr
in
rain mn
in
humidity
%
barometer
mb
20260507092204 49 259 0.0 0.0 0.01 0.18 0.02 92 1007.0
20260507091704 49 259 0.0 1.7 0.00 0.17 0.01 92 1007.1
20260507090205 49 256 0.0 0.9 0.00 0.17 0.01 92 1007.4
20260507085703 50 256 0.0 0.9 0.00 0.17 0.01 92 1007.1
20260507085204 50 256 0.0 0.9 0.00 0.17 0.01 92 1006.9
20260507084704 50 255 0.0 0.9 0.00 0.17 0.01 92 1006.9
20260507083704 50 256 0.0 0.0 0.00 0.17 0.01 92 1006.8
20260507082204 50 257 0.0 0.0 0.00 0.17 0.01 91 1006.7
20260507081204 51 258 0.0 1.7 0.00 0.17 0.01 90 1006.7
20260507080703 51 250 0.0 0.0 0.00 0.17 0.01 90 1006.7
20260507080204 51 257 0.9 1.7 0.00 0.17 0.01 89 1006.5
20260507075705 51 129 0.9 1.7 0.00 0.17 0.01 88 1006.7
20260507075204 51 193 0.0 0.9 0.00 0.17 0.01 89 1006.6
20260507074205 51 193 0.0 0.9 0.00 0.17 0.01 88 1007.0
20260507073704 51 256 0.9 2.6 0.00 0.17 0.01 88 1006.9
20260507073204 51 221 1.7 5.2 0.00 0.17 0.01 90 1006.5
20260507064703 52 291 0.0 4.3 0.00 0.17 0.01 89 1006.1
20260507064203 52 269 0.9 5.2 0.00 0.17 0.01 90 1006.1
20260507061204 52 266 0.0 0.9 0.00 0.17 0.01 90 1006.0
20260507060703 52 266 0.0 1.7 0.00 0.17 0.01 90 1006.0
20260507060204 52 266 0.0 2.6 0.00 0.17 0.01 90 1006.1
20260507054203 53 292 0.0 1.7 0.00 0.17 0.01 93 1006.5
20260507051703 53 294 0.0 0.9 0.00 0.17 0.01 92 1006.5
20260507051204 53 294 0.0 1.7 0.01 0.17 0.01 92 1006.5
20260507050704 53 294 0.9 1.7 0.01 0.17 0.01 91 1006.7
20260507043204 55 290 0.9 2.6 0.01 0.17 0.01 93 1006.4
20260507042703 55 324 0.0 2.6 0.01 0.17 0.01 93 1006.2
20260507041704 55 288 0.0 0.9 0.01 0.17 0.01 93 1006.4
20260507040703 56 292 1.7 6.1 0.00 0.16 0.00 92 1006.5
20260507035704 57 243 0.9 4.3 0.00 0.16 0.16 94 1006.3
20260507034204 57 247 0.0 2.6 0.00 0.16 0.16 93 1005.8
20260507033203 58 330 0.9 2.6 0.00 0.16 0.16 95 1005.6
20260507031703 59 280 0.0 2.6 0.00 0.16 0.16 95 1005.4
20260507031204 59 285 0.9 1.7 0.00 0.16 0.16 95 1005.2
20260507030704 59 284 0.0 2.6 0.00 0.16 0.16 95 1005.3
20260507030205 60 285 0.9 2.6 0.00 0.16 0.16 95 1005.5
20260507023703 60 247 0.9 5.2 0.00 0.16 0.16 96 1005.1
20260507022204 60 177 0.0 0.0 0.00 0.16 0.16 96 1004.9
20260507021703 60 177 0.0 0.9 0.00 0.16 0.16 96 1004.8
20260507020704 60 177 0.0 0.9 0.00 0.16 0.16 96 1004.6
20260507020203 60 177 0.0 0.0 0.00 0.16 0.16 96 1004.7
20260507014703 60 177 0.0 0.9 0.00 0.16 0.16 96 1004.7
20260507014204 60 177 0.0 0.9 0.00 0.16 0.16 96 1004.7
20260507013203 60 177 0.9 2.6 0.00 0.16 0.16 96 1004.7
20260507012704 60 187 0.0 2.6 0.00 0.16 0.16 96 1004.7
20260507010704 60 190 0.0 1.7 0.00 0.16 0.16 96 1004.8
20260507010203 60 189 1.7 5.2 0.00 0.16 0.16 96 1004.9
20260507005204 60 202 0.0 1.7 0.00 0.16 0.16 96 1004.8
20260507003205 60 188 0.9 2.6 0.00 0.16 0.16 96 1004.6
20260507001205 60 173 0.0 2.6 0.01 0.16 0.16 96 1004.6
20260506235705 60 204 0.0 0.9 0.04 0.16 0.16 96 1004.5
20260506235204 60 204 0.9 2.6 0.04 0.16 0.16 95 1004.5
20260506234705 60 188 0.0 1.7 0.05 0.16 0.16 95 1004.4
20260506233704 60 188 0.0 1.7 0.05 0.16 0.16 95 1004.4
20260506232706 60 189 0.9 2.6 0.06 0.16 0.16 95 1004.4
20260506225704 60 192 0.9 2.6 0.02 0.12 0.12 95 1004.7
20260506224704 60 174 0.9 2.6 0.02 0.11 0.11 95 1004.8
20260506224204 60 170 0.9 2.6 0.02 0.11 0.11 95 1004.8
20260506222704 61 164 0.9 1.7 0.02 0.10 0.10 94 1004.8
20260506221204 61 166 0.9 4.3 0.02 0.10 0.10 94 1004.8
20260506220704 61 186 0.9 2.6 0.02 0.10 0.10 94 1004.8
20260506215205 61 199 1.7 4.3 0.03 0.10 0.10 94 1004.9
20260506212704 61 168 0.9 2.6 0.03 0.08 0.08 93 1004.9
20260506212205 61 200 1.7 5.2 0.03 0.08 0.08 93 1005.0
20260506211205 61 176 0.0 4.3 0.04 0.08 0.08 93 1005.2
20260506205704 62 176 0.9 2.6 0.03 0.07 0.07 93 1005.3
20260506205205 62 181 0.9 2.6 0.03 0.07 0.07 92 1005.3
20260506204204 63 198 0.9 2.6 0.02 0.06 0.06 93 1005.5
20260506203705 63 197 0.0 1.7 0.02 0.06 0.06 92 1005.5
20260506201704 63 173 0.9 2.6 0.02 0.05 0.05 92 1005.6
20260506201204 63 186 0.9 1.7 0.01 0.04 0.04 91 1005.5
20260506200204 63 190 0.9 5.2 0.02 0.04 0.04 91 1005.5
20260506195705 63 200 0.0 1.7 0.02 0.04 0.04 91 1005.5
20260506195205 63 183 0.0 1.7 0.02 0.04 0.04 91 1005.5
20260506194704 64 186 0.9 2.6 0.03 0.04 0.04 90 1005.6
20260506192705 65 184 0.9 1.7 0.04 0.04 0.04 90 1005.5
20260506191704 65 184 1.7 4.3 0.03 0.03 0.03 89 1005.4
20260506190706 66 238 0.0 0.0 0.03 0.03 0.03 88 1005.5
20260506185705 66 238 0.0 0.9 0.02 0.02 0.02 86 1005.7
20260506183705 68 238 0.0 0.9 0.01 0.01 0.01 79 1005.8
20260506181704 70 233 1.7 4.3 0.00 0.00 0.00 70 1005.9
20260506173204 73 190 2.6 10.4 0.00 0.00 0.00 60 1005.7
20260506171704 74 177 2.6 11.3 0.00 0.00 0.00 61 1005.7
20260506171205 74 218 2.6 8.7 0.00 0.00 0.00 60 1005.7
20260506170705 74 158 1.7 2.6 0.00 0.00 0.00 61 1005.9
20260506170204 74 184 1.7 7.8 0.00 0.00 0.00 62 1005.9
20260506165704 73 166 1.7 5.2 0.00 0.00 0.00 63 1006.0
20260506165205 73 231 1.7 5.2 0.00 0.00 0.00 63 1006.1
20260506164705 73 209 1.7 6.1 0.00 0.00 0.00 62 1006.2
20260506163704 72 172 2.6 7.0 0.00 0.00 0.00 63 1006.3
20260506163204 72 183 1.7 4.3 0.00 0.00 0.00 64 1006.4
20260506161704 72 131 1.7 2.6 0.00 0.00 0.00 65 1006.6
20260506161205 72 168 1.7 2.6 0.00 0.00 0.00 65 1006.6
20260506160704 72 169 1.7 7.0 0.00 0.00 0.00 66 1006.8
20260506154704 71 198 1.7 5.2 0.00 0.00 0.00 67 1007.3
20260506154205 71 180 1.7 2.6 0.00 0.00 0.00 68 1007.4
20260506153704 71 196 1.7 5.2 0.00 0.00 0.00 67 1007.4
20260506153204 71 227 2.6 7.8 0.00 0.00 0.00 66 1007.6
20260506152204 71 198 1.7 5.2 0.00 0.00 0.00 67 1007.7
20260506151704 71 172 1.7 4.3 0.00 0.00 0.00 66 1007.7
20260506151205 71 218 1.7 2.6 0.00 0.00 0.00 67 1007.9
20260506150205 71 190 3.5 11.3 0.00 0.00 0.00 65 1007.7
20260506142204 71 190 2.6 6.1 0.00 0.00 0.00 69 1007.8
20260506141704 70 159 1.7 2.6 0.00 0.00 0.00 70 1007.5
20260506140204 69 162 0.9 7.8 0.00 0.00 0.00 73 1007.5
20260506135704 69 197 2.6 4.3 0.00 0.00 0.00 73 1007.6
20260506134704 68 161 1.7 5.2 0.00 0.00 0.00 74 1007.7
20260506134204 67 175 0.9 2.6 0.00 0.00 0.00 75 1007.8
20260506133704 67 175 0.9 2.6 0.00 0.00 0.00 75 1007.8
20260506132704 67 249 1.7 7.0 0.00 0.00 0.00 76 1008.2
20260506131705 66 181 1.7 4.3 0.00 0.00 0.00 76 1008.4
20260506131204 66 187 1.7 4.3 0.00 0.00 0.00 76 1008.3
20260506130204 66 173 0.9 2.6 0.00 0.00 0.00 76 1008.2
20260506124704 66 182 2.6 7.0 0.00 0.00 0.00 76 1008.5
20260506123704 65 178 1.7 5.2 0.00 0.00 0.00 77 1008.2
20260506123204 65 176 0.9 2.6 0.00 0.00 0.00 77 1008.1
20260506122704 65 185 0.9 7.0 0.00 0.00 0.00 78 1008.2
20260506122204 65 174 0.9 2.6 0.00 0.00 0.00 77 1008.2
20260506121204 64 194 0.9 2.6 0.00 0.00 0.00 78 1008.6
20260506120204 64 205 0.9 5.2 0.00 0.00 0.00 80 1008.5
20260506113704 63 190 0.9 6.1 0.00 0.00 0.00 80 1008.7
20260506113204 63 202 0.9 7.0 0.00 0.00 0.00 80 1008.7
20260506112704 63 189 1.7 4.3 0.00 0.00 0.00 80 1008.8
20260506110704 62 156 0.9 2.6 0.00 0.00 0.00 82 1008.7
20260506110205 61 154 0.9 4.3 0.00 0.00 0.00 83 1008.7
20260506105203 61 182 0.9 2.6 0.00 0.00 0.00 83 1008.8
20260506104204 61 163 0.9 2.6 0.00 0.00 0.00 82 1008.9
20260506103204 61 174 0.9 6.1 0.00 0.00 0.00 82 1008.8
20260506102704 61 163 0.0 1.7 0.00 0.00 0.00 82 1008.7
20260506102205 61 164 0.9 2.6 0.00 0.00 0.00 83 1008.6
20260506101204 60 164 0.0 1.7 0.00 0.00 0.00 82 1008.8
20260506100204 60 164 0.0 1.7 0.00 0.00 0.00 82 1008.8
20260506095204 61 165 0.9 1.7 0.00 0.00 0.00 82 1008.7
20260506094704 61 161 0.0 1.7 0.00 0.00 0.00 81 1008.7
20260506093704 61 157 0.0 0.9 0.00 0.00 0.00 81 1008.5
20260506092704 61 182 0.0 1.7 0.00 0.00 0.00 81 1008.8